OSCAR 7 (AO-7)

Last updated on Sat Jul 05 2025 00:03:06 GMT+0000 (Coordinated Universal Time)

1 07530U 74089B 25185.63430821 -.00000040 00000+0 39154-4 0 9991 2 07530 101.9929 190.1650 0012630 74.9976 38.8039 12.53689916316960
UTC large
Height (km)
Speed (km/s)
/
Latitude / Longitude
Inclination (degrees)
Orbital Period (minutes)
Azimuth
Elevation
Range (km)
Doppler Factor

Next 0 passes for location: London (51.5072 / 0.1276)

Sorry there are no passes over London.